Regional Weather Roundup
Issued by NWS

Home | Current Version | Previous Version | Text Only | Print | Product List | Glossary On
Versions: 1 2 3 4 5 6 7 8 9 10 11 12 13 14 15 16 17 18 19 20 21 22 23 24 25 26 27 28 29 30 31 32 33 34 35 36 37 38 39 40 41 42 43 44 45 46 47 48 49 50
000
ASUS42 KFFC 252210
RWRGA
WEATHER ROUNDUP FOR GEORGIA
NATIONAL WEATHER SERVICE PEACHTREE CITY GA
600 PM EDT TUE JUL 25 2017

NOTE: "FAIR" INDICATES FEW OR NO CLOUDS BELOW 12,000 FEET WITH NO
SIGNIFICANT WEATHER AND/OR OBSTRUCTIONS TO VISIBILITY.

* = USE WITH CAUTION. THE STATIONS MARKED WITH AN ASTERISK MAY NOT
REPORT WEATHER SUCH AS PRECIPITATION, FOG, OR THUNDER AND ARE NOT
QUALITY CONTROLLED BY NWS.

THE REMARK "TC" DENOTES TEMPERATURE READING IN DEGREES CELSIUS.

GAZ001>058-252300-
NORTH GEORGIA

CITY           SKY/WX    TMP DP  RH WIND       PRES   REMARKS
ATLANTA        TSTM      79  69  71 SW6       30.07F
ATHENS         CLOUDY    85  77  77 SW3       30.07S HX  95
CHAMBLEE       MOSUNNY   82  70  66 S5        30.07F
PEACHTREE CITY SUNNY     87  76  69 S3        30.07F THUNDER HX  97
ROME           SUNNY     94  71  47 N8        30.04F HX 101
WEST ATLANTA   MOSUNNY   88  65  46 S8        30.07R THUNDER HX  90
GAINESVILLE    MOSUNNY   90  70  51 S5        30.09F HX  95
CARTERSVILLE   PTSUNNY   91  72  53 CALM      30.06F HX  98


CITY           SKY/WX    TMP DP  RH WIND       PRES   REMARKS
LAWRENCEVILLE* MOSUNNY   86  72  62 CALM      30.09F HX  92
MARIETTA       PTSUNNY   86  68  55 SW10      30.07F THUNDER
KENNESAW*      MOSUNNY   95  68  41 NW5       30.09R HX  99
CANTON*        SUNNY     88  72  58 CALM      30.10S HX  94
$$

GAZ059>098-102>109-252300-
CENTRAL GEORGIA

CITY           SKY/WX    TMP DP  RH WIND       PRES   REMARKS
AUGUSTA-BUSH   CLOUDY    94  76  55 E7        30.02R HX 106
AUGUSTA-DANIEL CLOUDY    93  70  46 VRB3      30.03F HX  99
COLUMBUS       MOSUNNY   85  75  72 W3        30.06F HX  93
MACON          LGT RAIN  80  76  87 W5        30.06F
ROBINS AFB     LGT RAIN  80  77  90 W5        30.05F


CITY           SKY/WX    TMP DP  RH WIND       PRES   REMARKS
LAGRANGE*      MOSUNNY   88  78  70 CALM      30.08F HX 101
SYLVANIA*      TSTM      74  73  98 SW6       30.09F
MILLEDGEVILLE* CLOUDY    88  77  70 CALM      30.05F HX 100
$$

GAZ099>101-110>166-252300-
SOUTH GEORGIA

CITY           SKY/WX    TMP DP  RH WIND       PRES   REMARKS
SAVANNAH       TSTM      77  75  93 S8        30.07R
VALDOSTA       SUNNY     91  73  55 SW6       30.03F HX  99
ALMA           MOSUNNY   92  73  53 W6        30.02F HX 100
ST SIMONS      MOSUNNY   87  76  69 S13       30.02F HX  97
FT STEWART     CLOUDY    80  73  80 NE7       30.03S
ALBANY         PTSUNNY   85  75  72 NW5       30.06F HX  93
HUNTER AFB     TSTM      75  74  96 W9        30.04F FOG
MOODY AFB      PTSUNNY   85  74  68 NW15G24   30.03S HX  93
BRUNSWICK      PTSUNNY   90  79  70 SE10      30.03F HX 105


CITY           SKY/WX    TMP DP  RH WIND       PRES   REMARKS
BAINBRIDGE*    CLOUDY    77  77 100 NW3       30.07F
MOULTRIE*      PTSUNNY   79  73  83 SW6       30.07F
VIDALIA*       CLOUDY    81  75  83 N6        30.08R
WAYCROSS*      MOSUNNY   94  78  59 SW9       30.02S HX 109
DOUGLAS*       CLOUDY    84  72  65 NW14G20   30.06R
$$




USA.gov is the U.S. government's official web portal to all federal, state and local government web resources and services.